When you browse on this site, cookies collect data to enhance your experience and personalize the content and advertising you see.
Visit our Privacy Policy to learn more. By continuing to use the site, you agree to this use of cookies and data.
  • In Latvia
  • List of Countries
  • For 7 days
  • Water Temperature
  • Weather Map
  • Weather Widgets
  • user-avatar
    Login

    Hourly Weather Lisburn

    Today, 24 January, Friday

    Time Temperature Precipitation Wind Pressure Humidity
    00:00 +5°C° 0 mm 2 mps 765 mmHg 95%
    01:00 +4°C° 0 mm 3 mps 764 mmHg 95%
    02:00 +4°C° 0 mm 3 mps 764 mmHg 95%
    03:00 +4°C° 0 mm 3 mps 764 mmHg 94%
    04:00 +4°C° 0 mm 3 mps 763 mmHg 94%
    05:00 +5°C° 0 mm 3 mps 763 mmHg 94%
    06:00 +5°C° 0 mm 3 mps 763 mmHg 93%
    07:00 +5°C° 0 mm 3 mps 763 mmHg 93%
    08:00 +5°C° 0 mm 3 mps 763 mmHg 93%
    09:00 +5°C° 0 mm 3 mps 763 mmHg 93%
    10:00 +7°C° 0 mm 3 mps 762 mmHg 92%
    11:00 +7°C° 0 mm 2 mps 762 mmHg 91%
    12:00 +8°C° 0 mm 2 mps 762 mmHg 91%
    13:00 +8°C° 0 mm 2 mps 762 mmHg 91%
    14:00 +8°C° 0 mm 2 mps 761 mmHg 91%
    15:00 +8°C° 0 mm 2 mps 761 mmHg 91%
    16:00 +7°C° 0 mm 2 mps 761 mmHg 93%
    17:00 +7°C° 0 mm 2 mps 760 mmHg 95%
    18:00 +6°C° 0 mm 2 mps 760 mmHg 96%
    19:00 +6°C° 0 mm 2 mps 760 mmHg 95%
    20:00 +6°C° 0 mm 2 mps 760 mmHg 95%
    21:00 +6°C° 0 mm 2 mps 760 mmHg 94%
    22:00 +7°C° 0 mm 2 mps 760 mmHg 93%
    23:00 +7°C° 0 mm 3 mps 759 mmHg 93%

    Tomorrow, 25 January, Saturday

    Time Temperature Precipitation Wind Pressure Humidity
    00:00 +7°C° 0 mm 3 mps 759 mmHg 93%
    01:00 +7°C° 0 mm 3 mps 758 mmHg 92%
    02:00 +7°C° 0 mm 3 mps 758 mmHg 92%
    03:00 +7°C° 0 mm 3 mps 757 mmHg 91%
    04:00 +7°C° 0 mm 3 mps 756 mmHg 91%
    05:00 +6°C° 0 mm 4 mps 756 mmHg 90%
    06:00 +6°C° 0 mm 4 mps 755 mmHg 89%
    07:00 +6°C° 0 mm 4 mps 755 mmHg 88%
    08:00 +6°C° 0 mm 4 mps 755 mmHg 86%
    09:00 +6°C° 0 mm 4 mps 755 mmHg 85%
    10:00 +6°C° 0 mm 4 mps 754 mmHg 84%
    11:00 +6°C° 0 mm 5 mps 754 mmHg 83%
    12:00 +7°C° 0 mm 5 mps 754 mmHg 82%
    13:00 +7°C° 0 mm 5 mps 753 mmHg 82%
    14:00 +7°C° 0 mm 6 mps 752 mmHg 82%
    15:00 +7°C° 0 mm 6 mps 752 mmHg 83%
    16:00 +5°C° 0 mm 6 mps 751 mmHg 83%
    17:00 +5°C° 0 mm 5 mps 751 mmHg 83%
    18:00 +5°C° 0 mm 5 mps 750 mmHg 83%
    19:00 +5°C° 0 mm 5 mps 750 mmHg 84%
    20:00 +3°C° 0 mm 5 mps 750 mmHg 85%
    21:00 +3°C° 0 mm 5 mps 749 mmHg 86%
    22:00 +3°C° 0 mm 6 mps 749 mmHg 87%
    23:00 +4°C° 0 mm 6 mps 748 mmHg 88%

    Day after tomorrow, 26 January, Sunday

    Time Temperature Precipitation Wind Pressure Humidity
    00:00 +4°C° 0 mm 6 mps 747 mmHg 89%
    01:00 +4°C° 0.1 mm 7 mps 747 mmHg 90%
    02:00 +5°C° 0.1 mm 7 mps 746 mmHg 90%
    03:00 +5°C° 0.1 mm 7 mps 745 mmHg 90%
    04:00 +5°C° 1.1 mm 7 mps 744 mmHg 90%
    05:00 +7°C° 1.1 mm 6 mps 744 mmHg 91%
    06:00 +7°C° 1.1 mm 6 mps 743 mmHg 92%
    07:00 +5°C° 0.1 mm 6 mps 744 mmHg 91%
    08:00 +5°C° 0.1 mm 5 mps 744 mmHg 91%
    09:00 +5°C° 0.1 mm 5 mps 745 mmHg 90%
    10:00 +5°C° 0 mm 5 mps 745 mmHg 88%
    11:00 +5°C° 0 mm 5 mps 745 mmHg 85%
    12:00 +3°C° 0 mm 6 mps 745 mmHg 82%
    13:00 +3°C° 0 mm 5 mps 745 mmHg 81%
    14:00 +3°C° 0 mm 5 mps 745 mmHg 79%
    15:00 +3°C° 0 mm 4 mps 745 mmHg 78%
    16:00 +1°C° 0 mm 4 mps 745 mmHg 81%
    17:00 0°C° 0 mm 4 mps 744 mmHg 84%
    18:00 0°C° 0 mm 3 mps 744 mmHg 87%
    19:00 0°C° 0 mm 4 mps 743 mmHg 85%
    20:00 0°C° 0 mm 5 mps 743 mmHg 84%
    21:00 +1°C° 0 mm 5 mps 742 mmHg 82%
    22:00 +1°C° 0.2 mm 6 mps 741 mmHg 84%
    23:00 +1°C° 0.2 mm 6 mps 741 mmHg 86%

    27 January, Monday

    Time Temperature Precipitation Wind Pressure Humidity
    00:00 +1°C° 0.2 mm 6 mps 740 mmHg 88%
    01:00 0°C° 0 mm 7 mps 740 mmHg 87%
    02:00 -1°C° 0 mm 7 mps 741 mmHg 86%
    03:00 -1°C° 0 mm 7 mps 741 mmHg 85%
    04:00 -1°C° 0.2 mm 7 mps 741 mmHg 85%
    05:00 -2°C° 0.2 mm 7 mps 740 mmHg 84%
    06:00 -2°C° 0.2 mm 6 mps 740 mmHg 83%
    07:00 -2°C° 0 mm 7 mps 740 mmHg 83%
    08:00 -2°C° 0 mm 7 mps 741 mmHg 83%
    09:00 -2°C° 0 mm 7 mps 741 mmHg 83%
    10:00 -1°C° 0 mm 7 mps 740 mmHg 81%
    11:00 0°C° 0 mm 7 mps 740 mmHg 80%
    12:00 0°C° 0 mm 7 mps 740 mmHg 78%
    13:00 +1°C° 0 mm 6 mps 739 mmHg 81%
    14:00 +1°C° 0 mm 5 mps 738 mmHg 84%
    15:00 +1°C° 0 mm 5 mps 737 mmHg 87%
    16:00 +1°C° 0 mm 4 mps 736 mmHg 89%
    17:00 +2°C° 0 mm 3 mps 735 mmHg 91%
    18:00 +1°C° 0 mm 3 mps 734 mmHg 93%
    19:00 0°C° 0.1 mm 4 mps 734 mmHg 93%
    20:00 0°C° 0.1 mm 4 mps 733 mmHg 92%
    21:00 -1°C° 0.1 mm 5 mps 733 mmHg 91%
    22:00 -2°C° 0 mm 6 mps 733 mmHg 89%
    23:00 -3°C° 0 mm 6 mps 733 mmHg 88%

    28 January, Tuesday

    Time Temperature Precipitation Wind Pressure Humidity
    00:00 -3°C° 0 mm 6 mps 733 mmHg 86%
    01:00 -3°C° 0 mm 6 mps 733 mmHg 85%
    02:00 -3°C° 0 mm 6 mps 733 mmHg 83%
    03:00 -3°C° 0 mm 6 mps 733 mmHg 82%
    04:00 -2°C° 0.3 mm 7 mps 733 mmHg 85%
    05:00 -1°C° 0.3 mm 8 mps 733 mmHg 88%
    06:00 -1°C° 0.3 mm 9 mps 733 mmHg 91%
    07:00 -1°C° 0.2 mm 9 mps 733 mmHg 90%
    08:00 -1°C° 0.2 mm 9 mps 734 mmHg 88%
    09:00 -1°C° 0.2 mm 9 mps 734 mmHg 86%
    10:00 -1°C° 0.1 mm 9 mps 735 mmHg 83%
    11:00 -2°C° 0.1 mm 10 mps 735 mmHg 81%
    12:00 0°C° 0.1 mm 10 mps 736 mmHg 78%
    13:00 0°C° 0 mm 9 mps 736 mmHg 76%
    14:00 -1°C° 0 mm 9 mps 736 mmHg 75%
    15:00 -1°C° 0 mm 8 mps 736 mmHg 73%
    16:00 -1°C° 0 mm 8 mps 736 mmHg 75%
    17:00 -2°C° 0 mm 7 mps 737 mmHg 77%
    18:00 -3°C° 0 mm 7 mps 737 mmHg 79%
    19:00 -3°C° 0 mm 7 mps 737 mmHg 79%
    20:00 -3°C° 0 mm 7 mps 737 mmHg 79%
    21:00 -3°C° 0 mm 7 mps 737 mmHg 79%
    22:00 -2°C° 0.7 mm 7 mps 737 mmHg 83%
    23:00 -1°C° 0.7 mm 7 mps 737 mmHg 87%

    29 January, Wednesday

    Time Temperature Precipitation Wind Pressure Humidity
    00:00 -1°C° 0.7 mm 7 mps 737 mmHg 91%
    01:00 -1°C° 0 mm 8 mps 736 mmHg 88%
    02:00 -1°C° 0 mm 9 mps 736 mmHg 85%
    03:00 -1°C° 0 mm 9 mps 736 mmHg 83%
    04:00 0°C° 0.5 mm 9 mps 736 mmHg 85%
    05:00 0°C° 0.5 mm 9 mps 737 mmHg 87%
    06:00 +1°C° 0.5 mm 8 mps 737 mmHg 89%
    07:00 0°C° 0 mm 8 mps 738 mmHg 87%
    08:00 0°C° 0 mm 8 mps 739 mmHg 85%
    09:00 -1°C° 0 mm 7 mps 739 mmHg 82%
    10:00 0°C° 0 mm 9 mps 740 mmHg 82%
    11:00 +1°C° 0 mm 10 mps 740 mmHg 82%
    12:00 0°C° 0 mm 12 mps 740 mmHg 82%
    13:00 +1°C° 0.1 mm 11 mps 741 mmHg 82%
    14:00 +1°C° 0.1 mm 11 mps 742 mmHg 82%
    15:00 +2°C° 0.1 mm 10 mps 742 mmHg 82%
    16:00 +1°C° 0 mm 10 mps 743 mmHg 81%
    17:00 +1°C° 0 mm 9 mps 744 mmHg 80%
    18:00 0°C° 0 mm 8 mps 745 mmHg 80%
    19:00 0°C° 0 mm 8 mps 746 mmHg 81%
    20:00 0°C° 0 mm 8 mps 746 mmHg 83%
    21:00 0°C° 0 mm 8 mps 747 mmHg 85%
    22:00 0°C° 0.1 mm 7 mps 747 mmHg 86%
    23:00 0°C° 0.1 mm 7 mps 748 mmHg 88%
    Show more